This is the latest recevied weather packets stored in our database for station/object WB0RXX. If no packets are shown the sender has not sent any weather packets the latest 10 day(s).
| Time | Temp. | Humidity | Pressure | Rain* | Wind** | Luminosity | Snow |
|---|---|---|---|---|---|---|---|
| 1777836004 | 20° C | 36% | 1009.1 hPa | 0 mm | - | - | - |
| 1777835405 | 20° C | 36% | 1009.2 hPa | 0 mm | - | - | - |
| 1777834820 | 20° C | 37% | 1009.7 hPa | 0 mm | - | - | - |
| 1777834204 | 20° C | 38% | 1009.7 hPa | 0 mm | - | - | - |
| 1777833605 | 19.44° C | 36% | 1009.9 hPa | 0 mm | - | - | - |
| 1777833005 | 19.44° C | 37% | 1009.8 hPa | 0 mm | - | - | - |
| 1777832404 | 19.44° C | 37% | 1010 hPa | 0 mm | - | - | - |
| 1777831803 | 19.44° C | 39% | 1010 hPa | 0 mm | - | - | - |
| 1777831204 | 19.44° C | 38% | 1010.1 hPa | 0 mm | - | - | - |
| 1777830603 | 18.89° C | 39% | 1010.2 hPa | 0 mm | - | - | - |
| 1777830004 | 18.33° C | 38% | 1010.3 hPa | 0 mm | - | - | - |
| 1777829404 | 18.33° C | 39% | 1010.3 hPa | 0 mm | - | - | - |
| 1777828803 | 18.89° C | 39% | 1010.4 hPa | 0 mm | - | - | - |
| 1777828205 | 18.33° C | 41% | 1010.6 hPa | 0 mm | - | - | - |
| 1777827605 | 18.33° C | 39% | 1010.7 hPa | 0 mm | - | - | - |
| 1777827003 | 18.33° C | 41% | 1010.7 hPa | 0 mm | - | - | - |
| 1777826403 | 17.78° C | 42% | 1010.9 hPa | 0 mm | - | - | - |
| 1777825804 | 17.22° C | 42% | 1010.9 hPa | 0 mm | - | - | - |
| 1777825205 | 16.67° C | 42% | 1010.9 hPa | 0 mm | - | - | - |
| 1777824605 | 16.67° C | 45% | 1010.9 hPa | 0 mm | - | - | - |
| 1777824018 | 16.67° C | 46% | 1010.9 hPa | 0 mm | - | - | - |
| 1777823418 | 16.11° C | 48% | 1010.9 hPa | 0 mm | - | - | - |
| 1777822803 | 16.11° C | 49% | 1010.9 hPa | 0 mm | - | - | - |
| 1777822204 | 15.56° C | 50% | 1010.8 hPa | 0 mm | - | - | - |
| 1777821604 | 15.56° C | 50% | 1010.8 hPa | 0 mm | - | - | - |
* Rain latest hour (hover to see other rain measurements)
** Current wind speed in m/s (hover to see current wind gust speed)